カタログに戻る

FENGYUN 1C DEB

運用中SSO
NORAD 31716·DEBRIS·🇨🇳 China

打ち上げ May 10, 1999 から Taiyuan Satellite Launch Center

Loading…

次のパス (今後24時間)

TLE

最新Source: Space-Track

元期: Sep 14, 2026, 15:52 UTC

1 31716U 99025CDP 26257.66171422  .00001256  00000-0  74983-3 0  9992
2 31716  98.5390 145.5258 0130970  34.0651 355.7660 14.04699227979925

AllMySatでFENGYUN 1C DEBをリアルタイム追跡

Download on the App Store